Weather History for Juneau, AK

Change the Weather History Date:

Friday, May 10, 2013

  Actual Average Record
Temperature  
Mean Temperature 50 °F 47 °F  
Max Temperature 66 °F 55 °F 74 °F (2005)
Min Temperature 33 °F 39 °F 28 °F (1966)
Degree Days  
Heating Degree Days 15 18  
Month to date heating degree days 197 191  
Since 1 July heating degree days 8214 7719  
Cooling Degree Days 0 0  
Month to date cooling degree days 0 0  
Year to date cooling degree days 0 0  
Moisture  
Dew Point 35 °F    
Average Humidity 62    
Maximum Humidity 92    
Minimum Humidity 31    
Precipitation  
Precipitation 0.00 in 0.11 in 1.48 in (1991)
Month to date precipitation 2.52 1.04  
Year to date precipitation 25.56 17.24  
Sea Level Pressure  
Sea Level Pressure 30.13 in    
Wind  
Wind Speed 4 mph (WSW)    
Max Wind Speed 13 mph    
Max Gust Speed 15 mph    
Visibility 10 miles    
Events      
T = Trace of Precipitation, MM = Missing Value Source: NWS Daily Summary

Daily Weather History Graph

Daily Weather History Graph

Search for Another Location

Airport:

Trip Planner

Search our weather history database for the weather conditions in past years. The results will help you decide how hot, cold, wet, or windy it might be!

Date:

Astronomy

May. 10, 2013 Rise Set
Actual Time 4:41 AM AKDT 9:09 PM AKDT
Civil Twilight 3:47 AM AKDT 10:03 PM AKDT
Nautical Twilight 2:18 AM AKDT 11:36 PM AKDT
Astronomical Twilight Sun does not rise Sun does not rise
Moon 5:09 AM AKDT (5/10) 10:11 PM AKDT (5/10)
Length of Visible Light 18h 15m
Length of Day
16h 27m
New Moon, 1% of the Moon is Illuminated
May 10
New Moon
May 17
First Quarter
May 24
Full
May 31
Last Quarter
Jun 8
New

Hourly Weather History & Observations

Time (AKDT) Temp. Dew Point Humidity Pressure Visibility Wind Dir Wind Speed Gust Speed Precip Events Conditions
12:53 AM 37.0 °F 34.0 °F 89% 30.25 in 10.0 mi Calm Calm - N/A   Scattered Clouds
1:53 AM 37.9 °F 35.1 °F 89% 30.23 in 10.0 mi Calm Calm - N/A   Partly Cloudy
2:53 AM 37.0 °F 34.0 °F 89% 30.23 in 10.0 mi Calm Calm - N/A   Partly Cloudy
3:53 AM 37.0 °F 33.1 °F 86% 30.22 in 10.0 mi Calm Calm - N/A   Partly Cloudy
4:53 AM 36.0 °F 33.1 °F 89% 30.21 in 10.0 mi Calm Calm - N/A   Scattered Clouds
5:53 AM 35.1 °F 34.0 °F 96% 30.20 in 10.0 mi Calm Calm - N/A   Partly Cloudy
6:53 AM 39.9 °F 36.0 °F 86% 30.19 in 10.0 mi Calm Calm - N/A   Partly Cloudy
7:53 AM 46.0 °F 36.0 °F 68% 30.18 in 10.0 mi Calm Calm - N/A   Partly Cloudy
8:53 AM 50.0 °F 35.1 °F 57% 30.17 in 10.0 mi West 3.5 mph - N/A   Scattered Clouds
9:53 AM 55.0 °F 36.0 °F 49% 30.16 in 10.0 mi West 4.6 mph - N/A   Mostly Cloudy
10:53 AM 55.9 °F 35.1 °F 45% 30.16 in 10.0 mi WSW 8.1 mph - N/A   Overcast
11:53 AM 59.0 °F 36.0 °F 42% 30.15 in 10.0 mi WSW 9.2 mph - N/A   Overcast
12:53 PM 62.1 °F 32.0 °F 32% 30.14 in 10.0 mi West 5.8 mph - N/A   Overcast
1:53 PM 62.1 °F 33.1 °F 34% 30.12 in 10.0 mi WSW 11.5 mph - N/A   Mostly Cloudy
2:53 PM 62.1 °F 34.0 °F 35% 30.11 in 10.0 mi SW 10.4 mph - N/A   Mostly Cloudy
3:53 PM 64.0 °F 34.0 °F 33% 30.09 in 10.0 mi West 10.4 mph - N/A   Mostly Cloudy
4:53 PM 64.9 °F 33.1 °F 31% 30.08 in 10.0 mi WSW 9.2 mph - N/A   Mostly Cloudy
5:53 PM 64.9 °F 33.1 °F 31% 30.06 in 10.0 mi WSW 6.9 mph - N/A   Scattered Clouds
6:53 PM 63.0 °F 34.0 °F 34% 30.05 in 10.0 mi West 4.6 mph - N/A   Scattered Clouds
7:53 PM 60.1 °F 36.0 °F 41% 30.03 in 10.0 mi West 4.6 mph - N/A   Scattered Clouds
8:53 PM 57.0 °F 35.1 °F 44% 30.02 in 10.0 mi West 3.5 mph - N/A   Mostly Cloudy
9:53 PM 54.0 °F 37.9 °F 55% 30.03 in 10.0 mi West 4.6 mph - N/A   Overcast
10:53 PM 53.1 °F 39.0 °F 59% 30.02 in 10.0 mi Calm Calm - N/A   Overcast
11:53 PM 51.1 °F 39.9 °F 66% 30.01 in 10.0 mi SW 5.8 mph - N/A   Overcast